Find Starlink 30092

NORAD ID: 57467 Int'l Des: 2023-107 Owner: SPXS Country: US Constellation: starlink operational
LEOCIRCULAR

实时位置

正在加载3D地球...

关于 Starlink 30092

正在加载描述...

即将过境

Passes for default location (London). Set your location on the main map for personalized predictions.

高度历史

Loading altitude history...

两行轨道根数

1 57467U 23107L 26130.01302251 -.00000312 00000-0 -17951-5 0 9994
2 57467 43.0055 349.9581 0001565 270.6842 89.3831 15.27568421154523
Epoch: May 10, 2026 • Age: 22 hours

当前状态

高度 482.8 km
速度 7.63 km/s
星下点 -0.38°S, 141.46°E
发射日期 Jul 28, 2023
运行时间 2.7 years
类型 internet

技术详情

分类 Payload
质量 730.00 kg
干质量 700.00 kg
总质量 730.00 kg
长度 0.30 m
直径 4.10 m
跨度 29.00 m
形状 Box + pan
制造商 SPXS
平台类型 Starlink V2M
阶段状态 In Orbit
所有者/国家 SPXS/US

Most Searched